Time,TemperatureF,DewpointF,PressureIn,WindDirection,WindDirectionDegrees,WindSpeedMPH,WindSpeedGustMPH,Humidity,HourlyPrecipIn,Conditions,Clouds,dailyrainin,SoftwareType,DateUTC
2013-10-13 00:00:00,51.5,39.2,29.47,NNW,338,0.0,0.0,63,0.00,,,0.00,WUHU216HW,2013-10-13 05:00:00,
2013-10-13 00:05:00,51.5,39.2,29.47,NNW,338,0.0,0.0,63,0.00,,,0.00,WUHU216HW,2013-10-13 05:05:00,
2013-10-13 00:30:00,50.0,38.4,29.47,NNW,338,0.0,0.0,64,0.00,,,0.00,WUHU216HW,2013-10-13 05:30:00,
2013-10-13 00:35:00,50.0,38.4,29.47,NNW,338,0.0,0.0,64,0.00,,,0.00,WUHU216HW,2013-10-13 05:35:00,
2013-10-13 01:00:00,48.6,37.4,29.48,North,0,0.2,0.2,65,0.00,,,0.00,WUHU216HW,2013-10-13 06:00:00,
2013-10-13 01:05:00,48.6,37.4,29.48,North,0,0.2,0.2,65,0.00,,,0.00,WUHU216HW,2013-10-13 06:05:00,
2013-10-13 01:30:00,47.9,37.0,29.49,NNE,23,0.0,0.0,66,0.00,,,0.00,WUHU216HW,2013-10-13 06:30:00,
2013-10-13 01:35:00,47.9,37.0,29.49,NNE,23,0.0,0.0,66,0.00,,,0.00,WUHU216HW,2013-10-13 06:35:00,
2013-10-13 01:59:00,47.2,37.2,29.50,North,0,0.0,0.0,68,0.00,,,0.00,WUHU216HW,2013-10-13 06:59:00,
2013-10-13 02:05:00,47.2,37.2,29.50,North,0,0.0,0.0,68,0.00,,,0.00,WUHU216HW,2013-10-13 07:05:00,
2013-10-13 02:30:00,46.6,37.5,29.51,North,0,0.0,0.0,70,0.00,,,0.00,WUHU216HW,2013-10-13 07:30:00,
2013-10-13 02:35:00,46.6,37.5,29.51,North,0,0.0,0.0,70,0.00,,,0.00,WUHU216HW,2013-10-13 07:35:00,
2013-10-13 03:00:00,46.4,37.6,29.52,NW,315,0.0,0.0,71,0.00,,,0.00,WUHU216HW,2013-10-13 08:00:00,
2013-10-13 03:05:00,46.4,37.6,29.52,NW,315,0.0,0.0,71,0.00,,,0.00,WUHU216HW,2013-10-13 08:05:00,
2013-10-13 03:30:00,45.5,36.7,29.53,NW,315,0.0,0.0,71,0.00,,,0.00,WUHU216HW,2013-10-13 08:30:00,
2013-10-13 03:35:00,45.5,36.7,29.53,NW,315,0.0,0.0,71,0.00,,,0.00,WUHU216HW,2013-10-13 08:35:00,
2013-10-13 04:00:00,45.2,36.7,29.54,NW,315,0.0,0.0,72,0.00,,,0.00,WUHU216HW,2013-10-13 09:00:00,
2013-10-13 04:05:00,45.2,36.7,29.54,NW,315,0.0,0.0,72,0.00,,,0.00,WUHU216HW,2013-10-13 09:05:00,
2013-10-13 04:30:00,44.5,36.4,29.55,NW,315,0.0,0.0,73,0.00,,,0.00,WUHU216HW,2013-10-13 09:30:00,
2013-10-13 04:35:00,44.5,36.4,29.55,NW,315,0.0,0.0,73,0.00,,,0.00,WUHU216HW,2013-10-13 09:35:00,
2013-10-13 05:00:00,44.1,36.0,29.56,NW,315,0.0,0.0,73,0.00,,,0.00,WUHU216HW,2013-10-13 10:00:00,
2013-10-13 05:05:00,44.1,36.0,29.56,NW,315,0.0,0.0,73,0.00,,,0.00,WUHU216HW,2013-10-13 10:05:00,
2013-10-13 05:30:00,43.7,35.6,29.56,NW,315,0.0,0.0,73,0.00,,,0.00,WUHU216HW,2013-10-13 10:30:00,
2013-10-13 05:35:00,43.7,35.6,29.56,NW,315,0.0,0.0,73,0.00,,,0.00,WUHU216HW,2013-10-13 10:35:00,
2013-10-13 06:00:00,43.0,35.3,29.57,NW,315,0.0,0.0,74,0.00,,,0.00,WUHU216HW,2013-10-13 11:00:00,
2013-10-13 06:05:00,43.0,35.3,29.57,NW,315,0.0,0.0,74,0.00,,,0.00,WUHU216HW,2013-10-13 11:05:00,
2013-10-13 06:30:00,43.6,35.8,29.57,NNW,338,0.0,0.0,74,0.00,,,0.00,WUHU216HW,2013-10-13 11:30:00,
2013-10-13 06:35:00,43.6,35.8,29.57,NNW,338,0.0,0.0,74,0.00,,,0.00,WUHU216HW,2013-10-13 11:35:00,
2013-10-13 07:00:00,44.1,35.6,29.58,North,0,0.4,0.4,72,0.00,,,0.00,WUHU216HW,2013-10-13 12:00:00,
2013-10-13 07:05:00,44.1,35.6,29.58,North,0,0.4,0.4,72,0.00,,,0.00,WUHU216HW,2013-10-13 12:05:00,
2013-10-13 07:30:00,43.9,35.5,29.59,North,0,0.4,0.4,72,0.00,,,0.00,WUHU216HW,2013-10-13 12:30:00,
2013-10-13 07:35:00,43.9,35.5,29.59,North,0,0.4,0.4,72,0.00,,,0.00,WUHU216HW,2013-10-13 12:35:00,
2013-10-13 08:00:00,43.9,36.2,29.60,North,0,0.2,0.2,74,0.00,,,0.00,WUHU216HW,2013-10-13 13:00:00,
2013-10-13 08:05:00,43.9,36.2,29.60,North,0,0.2,0.2,74,0.00,,,0.00,WUHU216HW,2013-10-13 13:05:00,
2013-10-13 08:30:00,46.3,38.1,29.62,NNW,338,0.7,0.7,73,0.00,,,0.00,WUHU216HW,2013-10-13 13:30:00,
2013-10-13 08:35:00,46.3,38.1,29.62,NNW,338,0.7,0.7,73,0.00,,,0.00,WUHU216HW,2013-10-13 13:35:00,
2013-10-13 09:00:00,49.5,39.3,29.63,North,0,0.9,0.9,68,0.00,,,0.00,WUHU216HW,2013-10-13 14:00:00,
2013-10-13 09:05:00,49.5,39.3,29.63,North,0,0.9,0.9,68,0.00,,,0.00,WUHU216HW,2013-10-13 14:05:00,
2013-10-13 09:30:00,53.1,41.6,29.64,ENE,68,0.4,0.4,65,0.00,,,0.00,WUHU216HW,2013-10-13 14:30:00,
2013-10-13 09:35:00,53.1,41.6,29.64,ENE,68,0.4,0.4,65,0.00,,,0.00,WUHU216HW,2013-10-13 14:35:00,
2013-10-13 10:00:00,57.1,43.4,29.65,SE,135,1.1,1.1,60,0.00,,,0.00,WUHU216HW,2013-10-13 15:00:00,
2013-10-13 10:05:00,57.1,43.4,29.65,SE,135,1.1,1.1,60,0.00,,,0.00,WUHU216HW,2013-10-13 15:05:00,
2013-10-13 10:30:00,60.3,43.6,29.65,NNW,338,0.4,0.4,54,0.00,,,0.00,WUHU216HW,2013-10-13 15:30:00,
2013-10-13 10:35:00,60.3,43.6,29.65,NNW,338,0.4,0.4,54,0.00,,,0.00,WUHU216HW,2013-10-13 15:35:00,
2013-10-13 11:00:00,63.0,42.9,29.65,NW,315,1.1,1.1,48,0.00,,,0.00,WUHU216HW,2013-10-13 16:00:00,
2013-10-13 11:05:00,63.0,42.9,29.65,NW,315,1.1,1.1,48,0.00,,,0.00,WUHU216HW,2013-10-13 16:05:00,
2013-10-13 11:30:00,65.0,40.1,29.65,ESE,113,3.1,3.1,40,0.00,,,0.00,WUHU216HW,2013-10-13 16:30:00,
2013-10-13 11:35:00,65.0,40.1,29.65,ESE,113,3.1,3.1,40,0.00,,,0.00,WUHU216HW,2013-10-13 16:35:00,
2013-10-13 12:00:00,66.1,40.3,29.65,SW,225,0.4,0.4,39,0.00,,,0.00,WUHU216HW,2013-10-13 17:00:00,
2013-10-13 12:05:00,66.1,40.3,29.65,SW,225,0.4,0.4,39,0.00,,,0.00,WUHU216HW,2013-10-13 17:05:00,
2013-10-13 12:30:00,67.0,39.7,29.64,ENE,68,0.4,0.4,37,0.00,,,0.00,WUHU216HW,2013-10-13 17:30:00,
2013-10-13 12:35:00,67.0,39.7,29.64,ENE,68,0.4,0.4,37,0.00,,,0.00,WUHU216HW,2013-10-13 17:35:00,
2013-10-13 13:00:00,67.3,38.5,29.63,SE,135,0.7,0.7,35,0.00,,,0.00,WUHU216HW,2013-10-13 18:00:00,
2013-10-13 13:05:00,67.3,38.5,29.63,SE,135,0.7,0.7,35,0.00,,,0.00,WUHU216HW,2013-10-13 18:05:00,
2013-10-13 13:30:00,68.8,39.8,29.62,NNE,23,1.8,1.8,35,0.00,,,0.00,WUHU216HW,2013-10-13 18:30:00,
2013-10-13 13:35:00,68.8,39.8,29.62,NNE,23,1.8,1.8,35,0.00,,,0.00,WUHU216HW,2013-10-13 18:35:00,
2013-10-13 14:00:00,68.8,38.4,29.61,NW,315,1.8,1.8,33,0.00,,,0.00,WUHU216HW,2013-10-13 19:00:00,
2013-10-13 14:05:00,68.8,38.4,29.61,NW,315,1.8,1.8,33,0.00,,,0.00,WUHU216HW,2013-10-13 19:05:00,
2013-10-13 14:30:00,68.2,37.1,29.60,WNW,293,3.4,3.4,32,0.00,,,0.00,WUHU216HW,2013-10-13 19:30:00,
2013-10-13 14:35:00,68.2,37.1,29.60,WNW,293,3.4,3.4,32,0.00,,,0.00,WUHU216HW,2013-10-13 19:35:00,
2013-10-13 15:00:00,68.8,38.4,29.60,NNE,23,1.6,1.6,33,0.00,,,0.00,WUHU216HW,2013-10-13 20:00:00,
2013-10-13 15:05:00,68.8,38.4,29.60,NNE,23,1.6,1.6,33,0.00,,,0.00,WUHU216HW,2013-10-13 20:05:00,
2013-10-13 15:30:00,68.0,36.9,29.60,NNW,338,0.4,0.4,32,0.00,,,0.00,WUHU216HW,2013-10-13 20:30:00,
2013-10-13 15:35:00,68.0,36.9,29.60,NNW,338,0.4,0.4,32,0.00,,,0.00,WUHU216HW,2013-10-13 20:35:00,
2013-10-13 16:00:00,67.5,35.7,29.59,WSW,248,0.7,0.7,31,0.00,,,0.00,WUHU216HW,2013-10-13 21:00:00,
2013-10-13 16:05:00,67.5,35.7,29.59,WSW,248,0.7,0.7,31,0.00,,,0.00,WUHU216HW,2013-10-13 21:05:00,
2013-10-13 16:30:00,67.3,36.4,29.58,NE,45,3.6,3.6,32,0.00,,,0.00,WUHU216HW,2013-10-13 21:30:00,
2013-10-13 16:35:00,67.3,36.4,29.58,NE,45,3.6,3.6,32,0.00,,,0.00,WUHU216HW,2013-10-13 21:35:00,
2013-10-13 17:00:00,66.4,36.4,29.57,NNW,338,0.7,0.7,33,0.00,,,0.00,WUHU216HW,2013-10-13 22:00:00,
2013-10-13 17:05:00,66.4,36.4,29.57,NNW,338,0.7,0.7,33,0.00,,,0.00,WUHU216HW,2013-10-13 22:05:00,
2013-10-13 17:30:00,65.2,34.5,29.57,NNW,338,0.9,0.9,32,0.00,,,0.00,WUHU216HW,2013-10-13 22:30:00,
2013-10-13 17:35:00,65.2,34.5,29.57,NNW,338,0.9,0.9,32,0.00,,,0.00,WUHU216HW,2013-10-13 22:35:00,
2013-10-13 18:00:00,63.0,34.8,29.58,North,0,0.0,0.0,35,0.00,,,0.00,WUHU216HW,2013-10-13 23:00:00,
2013-10-13 18:05:00,63.0,34.8,29.58,North,0,0.0,0.0,35,0.00,,,0.00,WUHU216HW,2013-10-13 23:05:00,
2013-10-13 18:30:00,59.6,35.2,29.58,North,0,0.0,0.0,40,0.00,,,0.00,WUHU216HW,2013-10-13 23:30:00,
2013-10-13 18:35:00,59.6,35.2,29.58,North,0,0.0,0.0,40,0.00,,,0.00,WUHU216HW,2013-10-13 23:35:00,
2013-10-13 19:00:00,56.5,34.7,29.59,North,0,0.0,0.0,44,0.00,,,0.00,WUHU216HW,2013-10-14 00:00:00,
2013-10-13 19:05:00,56.5,34.7,29.59,North,0,0.0,0.0,44,0.00,,,0.00,WUHU216HW,2013-10-14 00:05:00,
2013-10-13 19:30:00,53.6,33.8,29.59,NNW,338,0.0,0.0,47,0.00,,,0.00,WUHU216HW,2013-10-14 00:30:00,
2013-10-13 19:35:00,53.6,33.8,29.59,NNW,338,0.0,0.0,47,0.00,,,0.00,WUHU216HW,2013-10-14 00:35:00,
2013-10-13 20:00:00,52.4,33.8,29.60,North,0,0.0,0.0,49,0.00,,,0.00,WUHU216HW,2013-10-14 01:00:00,
2013-10-13 20:05:00,52.4,33.8,29.60,North,0,0.0,0.0,49,0.00,,,0.00,WUHU216HW,2013-10-14 01:05:00,
2013-10-13 20:30:00,51.3,33.4,29.60,North,0,0.0,0.0,50,0.00,,,0.00,WUHU216HW,2013-10-14 01:30:00,
2013-10-13 20:35:00,51.3,33.4,29.60,North,0,0.0,0.0,50,0.00,,,0.00,WUHU216HW,2013-10-14 01:35:00,
2013-10-13 21:00:00,50.8,33.3,29.62,North,0,0.0,0.0,51,0.00,,,0.00,WUHU216HW,2013-10-14 02:00:00,
2013-10-13 21:05:00,50.8,33.3,29.62,North,0,0.0,0.0,51,0.00,,,0.00,WUHU216HW,2013-10-14 02:05:00,
2013-10-13 21:30:00,48.4,33.0,29.62,North,0,0.0,0.0,55,0.00,,,0.00,WUHU216HW,2013-10-14 02:30:00,
2013-10-13 21:35:00,48.4,33.0,29.62,North,0,0.0,0.0,55,0.00,,,0.00,WUHU216HW,2013-10-14 02:35:00,
2013-10-13 22:00:00,47.7,32.7,29.62,NNE,23,0.4,0.4,56,0.00,,,0.00,WUHU216HW,2013-10-14 03:00:00,
2013-10-13 22:05:00,47.7,32.7,29.62,NNE,23,0.4,0.4,56,0.00,,,0.00,WUHU216HW,2013-10-14 03:05:00,
2013-10-13 22:30:00,46.4,32.4,29.61,NNE,23,0.4,0.4,58,0.00,,,0.00,WUHU216HW,2013-10-14 03:30:00,
2013-10-13 22:35:00,46.4,32.4,29.61,NNE,23,0.4,0.4,58,0.00,,,0.00,WUHU216HW,2013-10-14 03:35:00,
2013-10-13 23:00:00,45.9,32.9,29.61,NNW,338,0.0,0.0,60,0.00,,,0.00,WUHU216HW,2013-10-14 04:00:00,
2013-10-13 23:01:00,45.9,32.9,29.61,NNW,338,0.0,0.0,60,0.00,,,0.00,WUHU216HW,2013-10-14 04:01:00,
2013-10-13 23:02:00,45.9,32.9,29.61,NNW,338,0.0,0.0,60,0.00,,,0.00,WUHU216HW,2013-10-14 04:02:00,
2013-10-13 23:03:00,45.9,32.9,29.61,NNW,338,0.0,0.0,60,0.00,,,0.00,WUHU216HW,2013-10-14 04:03:00,
2013-10-13 23:08:00,45.9,32.9,29.61,NNW,338,0.0,0.0,60,0.00,,,0.00,WUHU216HW,2013-10-14 04:08:00,
2013-10-13 23:30:00,45.5,32.5,29.62,North,0,0.0,0.0,60,0.00,,,0.00,WUHU216HW,2013-10-14 04:30:00,
2013-10-13 23:35:00,45.5,32.5,29.62,North,0,0.0,0.0,60,0.00,,,0.00,WUHU216HW,2013-10-14 04:35:00,